Weather in Mykolaivka

Ukraine / Kharkiv Region     49°55′22″N   37°53′21″E
temp.,
°C
wind,
m/s
gust,
m/s
humid.,
%
clouds,
%
prec.,
mm/h
press.,
hPa
HPBL,
m
26 january, tue
tue2623:00+1se71773100 0.0 1012381
02:00+2se81776100 0.0 1010549
05:00+1sse112083100 1.1 1008717
08:00+4s91782100 1.6 1009897
11:00+4ssw9157788 0.0 1012914
14:00+4s4107887 0.0 1012444
17:00+2sse61386100 0.0 1013319
20:00+3sse81790100 0.3 1011472
27 january, wed
wed2723:00+5s91988100 0.0 1011700
02:00+4s51390100 0.4 1012457
05:00+2sse4896100 0.6 1012222
08:00+2se3896100 2.6 1012236
11:00+3se41088100 0.3 1012322
14:00+4se51085100 0.3 1010351
17:00+3se51187100 0.0 1010323
20:00+3ese61183100 0.2 1009264
28 january, thu
thu2823:00+2se61291100 0.0 1009430
02:00+1ese61291100 0.0 1008432
05:00+2se61293100 0.1 1007431
08:00+2se71293100 0.4 1007445
11:00+3se71188100 0.0 1006469
14:00+4sse5984100 0.0 1005566
17:00+3se499197 0.0 1006279
20:00+2sse379598 0.0 1007160
29 january, fri
fri2923:00+3ssw2494100 0.0 100777
02:00+2wsw3392100 0.0 100676
05:00+1wsw3383100 0.0 100665
08:00+1sw2484100 0.0 100696
11:00+3ssw476695 0.0 1005607
14:00+4ssw696471 0.0 10041282
17:00+1s497961 0.1 1004266
20:000ssw5109478 0.4 1004532
30 january, sat
sat3023:00−1sw6109395 0.1 1004588
02:00−1wsw599097 0.3 1005590
05:00−1wsw5779100 0.1 1005902
08:00−1ssw3577100 0.1 1006454
11:000sse4683100 0.0 1004494
14:000se61097100 1.3 1002449
17:00+2s4998100 2.1 999342
20:00+3ssw51297100 4.1 998514